Weather History for Tampa Macdill AFB, FL

Change the Weather History Date:

Monday, December 17, 2012

  Actual Average Record
Temperature  
Mean Temperature 70 °F -  
Max Temperature 79 °F 69 °F 80 °F (2001)
Min Temperature 60 °F 51 °F 39 °F (2007)
Cooling Degree Days 4    
Growing Degree Days 20 (Base 50)    
Moisture  
Dew Point 68 °F    
Average Humidity 94    
Maximum Humidity 100    
Minimum Humidity 77    
Precipitation  
Precipitation 0.01 in - - ()
Sea Level Pressure  
Sea Level Pressure 29.94 in    
Wind  
Wind Speed 5 mph (West)    
Max Wind Speed 17 mph    
Max Gust Speed -    
Visibility 10 miles    
Events      
Averages and records for this station are not official NWS values.
T = Trace of Precipitation, MM = Missing Value Source: NWS Daily Summary

Daily Weather History Graph

Daily Weather History Graph

Search for Another Location

Airport:

Trip Planner

Search our weather history database for the weather conditions in past years. The results will help you decide how hot, cold, wet, or windy it might be!

Date:

Astronomy

Dec. 17, 2012 Rise Set
Actual Time 7:15 AM EST 5:38 PM EST
Civil Twilight 6:49 AM EST 6:03 PM EST
Nautical Twilight 6:20 AM EST 6:32 PM EST
Astronomical Twilight 5:51 AM EST 7:01 PM EST
Moon 10:43 AM EST 10:34 PM EST
Length of Visible Light 11h 14m
Length of Day
10h 23m
Waxing Crescent, 24% of the Moon is Illuminated
Dec 17
Waxing Crescent
Dec 20
First Quarter
Dec 28
Full
Jan 4
Last Quarter
Jan 11
New

Hourly Weather History & Observations

Time (EST) Temp. Dew Point Humidity Pressure Visibility Wind Dir Wind Speed Gust Speed Precip Events Conditions
12:55 AM 60.8 °F 60.3 °F 98% 30.00 in 10.0 mi Calm Calm - N/A   Clear
1:55 AM 61.9 °F 61.9 °F 100% 29.98 in 10.0 mi Calm Calm - N/A   Clear
2:55 AM 63.0 °F 63.0 °F 100% 29.97 in 10.0 mi Calm Calm - N/A   Partly Cloudy
3:55 AM 64.8 °F 64.8 °F 100% 29.95 in 10.0 mi SSE 3.5 mph - N/A   Clear
4:55 AM 64.4 °F 64.4 °F 100% 29.93 in 10.0 mi SSE 5.8 mph - N/A   Clear
5:55 AM 65.1 °F 65.1 °F 100% 29.93 in 10.0 mi SW 4.6 mph - N/A   Clear
6:55 AM 65.3 °F 65.3 °F 100% 29.95 in 10.0 mi Calm Calm - N/A   Clear
7:55 AM 66.6 °F 66.6 °F 100% 29.96 in 10.0 mi Calm Calm - 0.01 in   Clear
8:55 AM 69.4 °F 69.4 °F 100% 29.96 in 10.0 mi WSW 8.1 mph - N/A   Clear
9:55 AM 72.9 °F 71.8 °F 96% 29.96 in 10.0 mi WSW 11.5 mph - N/A   Clear
10:55 AM 76.3 °F 71.2 °F 84% 29.96 in 10.0 mi West 9.2 mph - N/A   Clear
11:55 AM 79.2 °F 71.6 °F 78% 29.95 in 10.0 mi West 15.0 mph - N/A   Clear
12:55 PM 79.2 °F 71.4 °F 77% 29.93 in 10.0 mi WNW 16.1 mph - N/A   Clear
1:55 PM 78.6 °F 71.1 °F 78% 29.91 in 10.0 mi West 17.3 mph - N/A   Clear
2:55 PM 78.1 °F 71.4 °F 80% 29.91 in 10.0 mi WNW 12.7 mph - N/A   Clear
3:55 PM 76.1 °F 70.9 °F 84% 29.91 in 10.0 mi West 13.8 mph - N/A   Partly Cloudy
4:55 PM 74.3 °F 71.2 °F 90% 29.92 in 10.0 mi WNW 11.5 mph - N/A   Scattered Clouds
7:55 PM 68.7 °F 68.7 °F 100% 29.96 in 10.0 mi WNW 3.5 mph - N/A   Mostly Cloudy
8:55 PM 69.4 °F 69.4 °F 100% 29.95 in 10.0 mi West 5.8 mph - N/A   Scattered Clouds
9:55 PM 69.1 °F 69.1 °F 100% 29.94 in 10.0 mi West 5.8 mph - N/A   Clear
10:55 PM 69.3 °F 69.3 °F 100% 29.92 in 10.0 mi West 10.4 mph - N/A   Clear
11:55 PM 69.4 °F 69.4 °F 100% 29.90 in 10.0 mi WSW 10.4 mph - N/A   Clear